Location: Étavigny
(49.1201°N, 2.9800°E)
Time: 07:12:27
(UTC+00:00)

Meteor 2-5 Rocket - Pass Details

Date: 28 January 2023
Orbit: 833 x 912 km, 81.2° (Epoch: 24 March)

Event Time Altitude Azimuth Distance (km) Brightness Sun altitude
Rises 17:12:11 0° 191° (S) 3,511 7.4 -6.0°
Reaches altitude 10° 17:14:39 10° 191° (SSW) 2,566 6.7 -6.3°
Maximum altitude 17:20:31 87° 280° (W) 895 3.9 -7.2°
Drops below altitude 10° 17:26:18 10° 11° (NNE) 2,533 5.9 -8.1°
Sets 17:28:44 0° 12° (NNE) 3,463 6.6 -8.5°
